Flag for Austria Past Weather in St. Veit an der Glan, Carinthia, Austria — Yesterday and Last 2 Weeks

Now
58 °F

Scattered clouds.


Feels Like: N/A
Forecast: 55 / 81 °F
Wind: N/A

Location: Klagenfurt-Flughafen

Current Time: Aug 26, 2016 at 9:01:28 AM

Latest Report: Aug 26, 2016 at 8:00 AM


Visibility: 7 mi

Pressure: 30.22 "Hg

Humidity: 91%

Dew Point: 55 °F

Location of St. Veit an der GlanLocation

Past Weather in St. Veit an der Glan — Graph

°F

St. Veit an der Glan Temperature Yesterday

Maximum temperature yesterday: 79 °F (at 5:00 PM)
Minimum temperature yesterday: 57 °F (at 7:00 AM)
Average temperature yesterday: 68 °F

High & Low Weather Summary for the Past Weeks

 TemperatureHumidityPressure
High83 °F (Aug 14, 6:00 PM)96% (Aug 16, 3:00 AM)30.41 "Hg (Aug 16, 3:00 AM)
Low45 °F (Aug 12, 6:00 AM)42% (Aug 14, 3:00 PM)29.79 "Hg (Aug 17, 4:00 PM)
Average65 °F75%30.11 "Hg
* Reported Aug 11 8:00 AM — Aug 26 8:00 AM, St. Veit an der Glan, Weather by CustomWeather, © 2016

Note: Actual official high and low records may vary slightly from our data, if they occured in-between our weather recording intervals... More about our weather records

Advertising

St. Veit an der Glan Weather History for the Previous 24 Hours

Scroll right to see more
 ConditionsComfort  
Time TempWeatherWind HumidityBarometerVisibility
8:00 AM
Fri, Aug 26
58 °FScattered clouds.N/A91%30.22 "Hg7 mi
7:00 AM55 °FPassing clouds.N/A96%30.23 "Hg2 mi
6:00 AM55 °FPassing clouds.N/A92%30.23 "Hg6 mi
5:00 AM58 °FPassing clouds.N/A91%30.22 "Hg7 mi
4:00 AM58 °FPassing clouds.N/A91%30.22 "Hg7 mi
3:00 AM58 °FPassing clouds.N/A90%30.21 "Hg9 mi
2:00 AM60 °FPassing clouds.N/A89%30.21 "Hg10 mi
1:00 AM60 °FCool.N/A87%30.21 "Hg12 mi
12:00 AM62 °FCool.N/A83%30.20 "Hg17 mi
11:00 PM
Thu, Aug 25
64 °FMild.N/A78%30.18 "Hg22 mi
10:00 PM67 °FMild.N/A69%30.16 "Hg22 mi
9:00 PM71 °FClear.N/A62%30.14 "Hg28 mi
8:00 PM73 °FClear.N/A56%30.11 "Hg28 mi
7:00 PM76 °FPassing clouds.N/A50%30.09 "Hg19 mi
6:00 PM78 °FPassing clouds.N/A46%30.09 "Hg22 mi
5:00 PM79 °FPassing clouds.N/A45%30.10 "Hg17 mi
4:00 PM78 °FPassing clouds.3 mph42%30.11 "Hg22 mi
3:00 PM77 °FPassing clouds.N/A49%30.12 "Hg16 mi
2:00 PM76 °FPassing clouds.3 mph49%30.14 "Hg19 mi
1:00 PM74 °FPassing clouds.N/A54%30.15 "Hg19 mi
12:00 PM73 °FPassing clouds.N/A57%30.18 "Hg12 mi
11:00 AM71 °FPassing clouds.N/A62%30.20 "Hg16 mi
10:00 AM67 °FPassing clouds.N/A76%30.22 "Hg9 mi
9:00 AM61 °FPassing clouds.N/A85%30.24 "Hg11 mi
Weather by CustomWeather, © 2016

See weather overviewHow to use our weather pages